ECHOSTAR 23 (42070 NORAD) Tracking and Keplerian Element Data

This shows tracking and keplerian element data for the satellite.

Feedback or suggestion? Click here.




ElementValue
Catalog42070
NameECHOSTAR 23
Epoch Orbit771
Epoch Day109.36065814
Epoch Year2019
RAAN228.2658
Inclination0.0191
Eccentricity0.0002025
Argument of Perigee172.3631
Mean Anonmoly251.4768
Mean Motion1.00270176
Decay Rate-2.93E-06
L11 42070U 17014A 19109.36065814 -.00000293 00000-0 00000-0 0 9994
L22 42070 0.0191 228.2658 0002025 172.3631 251.4768 1.00270176 7713

Live tracking and technical data element details for ECHOSTAR 23 (NORAD 42070). ECHOSTAR 23 can be tracked NOW for your location showing map with azimuth and elevation plus other details from your city location.

Track the satellite on the map from your city or location and see movement details for azimuth, elevation, latitude, longitude, range, height, and movement on the map or in text.







IsCatalogInMostPopularTable: catalog: 42070, numindb: 255
Update: records affected: 1



GetName: 42070 ECHOSTAR 23

Hit Count: updated at: Sat, 20 Apr 2019 21:09:28 GMT